Wind_Speed
60 58 56 56 57 55 57 56 57 56 55 56 55 55 52 52 51 51 50 48 47 46 46 45 42 39 36 33 31 29 27 26 27 27 28 24 23 21 21 19 17 16 13 11 9
63 62 61 55 56 55 56 56 55 53 55 56 58 56 55 53 53 52 51 50 49 48 47 47 44 41 38 36 35 32 30 30 32 31 29 26 26 23 23 21 19 18 14 13 13
67 66 67 63 57 55 56 57 56 60 55 54 58 59 57 55 55 55 53 53 51 50 50 49 47 44 41 39 37 35 33 35 33 28 30 27 29 26 26 23 23 17 16 17 17
66 65 65 66 65 58 57 56 56 55 62 55 55 54 59 56 58 56 54 53 52 51 51 50 49 47 44 41 40 37 37 34 30 30 31 29 31 27 27 26 23 20 19 20 21
70 66 66 63 62 63 59 56 56 53 50 55 56 48 50 55 56 55 54 54 53 51 51 51 51 50 47 45 42 41 38 35 31 34 34 31 32 31 28 28 28 22 23 23 24
71 71 66 65 61 61 63 58 59 55 52 52 54 55 54 52 55 51 50 52 53 52 50 51 50 52 47 47 43 42 37 38 33 35 33 33 34 34 31 31 30 26 25 27 28
67 72 71 69 69 63 60 62 60 58 56 61 58 57 55 50 45 50 44 45 49 50 50 49 48 48 50 49 46 42 40 39 34 35 33 32 33 32 34 32 29 29 28 29 30
60 65 66 70 69 68 65 67 63 60 57 56 59 59 56 63 57 49 45 43 45 47 47 48 48 50 48 48 44 43 42 40 37 35 33 34 30 33 32 32 31 30 29 30 32
55 49 57 63 67 67 72 66 75 73 64 63 60 56 55 54 53 57 50 46 44 45 46 46 47 49 49 47 49 46 43 42 39 37 36 35 30 36 29 31 31 30 30 32 33
53 51 52 52 52 62 67 70 74 70 73 73 64 63 61 59 51 53 50 43 43 43 45 46 47 47 49 50 48 46 46 44 42 41 40 38 33 36 31 31 30 30 32 33 34
55 53 52 50 53 50 57 65 68 64 67 71 71 61 56 57 51 50 50 50 45 44 44 44 46 45 45 46 49 48 45 47 46 43 43 42 39 37 36 33 32 35 36 36 38
53 53 51 53 50 53 48 55 64 62 58 61 67 66 55 54 57 53 53 48 47 48 44 45 46 44 44 47 48 48 47 47 48 47 46 46 44 39 39 41 40 39 41 42 43
54 50 53 48 51 58 48 50 54 59 62 59 60 66 65 57 59 53 51 55 48 51 51 47 46 45 46 45 44 45 46 46 48 49 47 49 47 46 45 44 42 42 46 50 49
60 54 53 51 51 52 50 49 53 62 63 61 57 60 63 62 56 59 51 51 52 48 50 53 47 45 46 44 45 45 44 46 46 48 49 49 51 48 49 46 44 46 45 44 46
57 58 51 50 47 47 46 48 50 53 61 64 60 56 55 58 62 58 56 47 49 47 46 47 51 46 45 43 44 45 43 44 47 46 51 52 55 56 53 52 53 54 49 51 54
52 51 49 53 51 49 49 48 46 47 56 62 55 53 50 54 59 59 63 57 47 48 50 48 47 48 45 45 49 48 46 47 46 48 52 50 52 58 55 56 58 57 59 56 56
51 51 49 51 46 51 55 48 48 51 51 55 55 53 52 49 54 60 57 57 60 52 50 50 51 50 47 47 47 47 47 46 47 49 55 55 56 58 63 61 61 63 58 54 55
55 57 54 49 56 50 47 50 52 50 47 50 50 50 55 53 54 52 56 61 60 61 62 53 52 50 48 48 47 48 48 51 55 59 59 60 63 60 59 60 62 59 59 52 49
55 57 56 55 54 51 60 58 53 51 51 48 47 46 48 49 53 53 52 54 56 58 58 60 62 60 48 49 53 55 58 56 60 59 61 60 58 57 58 59 55 50 48 48 47
61 54 54 52 52 51 50 53 54 55 53 49 46 43 40 36 39 41 49 50 52 59 60 57 56 56 57 59 58 59 59 57 59 57 57 59 58 58 57 55 55 52 48 44 41
50 53 56 52 49 52 52 52 53 56 54 51 46 43 37 38 36 35 41 44 43 47 52 53 54 55 55 56 54 57 57 56 55 57 59 61 60 58 57 58 58 56 48 44 40
57 58 57 55 56 53 50 48 47 49 48 48 47 43 42 37 35 34 35 35 40 43 42 39 42 45 47 50 52 55 57 57 58 58 56 57 57 55 56 56 53 50 49 41 39
51 54 55 63 62 62 57 49 49 49 47 46 45 43 41 39 37 35 33 34 35 39 41 42 47 47 50 52 53 55 54 54 54 55 55 57 58 61 55 51 48 47 47 47 47
53 53 55 64 63 58 53 52 53 50 46 47 47 44 40 41 38 37 37 35 34 35 36 39 43 47 44 46 47 50 51 52 55 59 58 55 52 48 48 49 50 50 49 50 46
49 48 53 57 55 57 50 50 51 48 47 49 48 44 45 44 40 36 35 35 39 39 35 29 34 40 40 45 46 45 45 45 48 50 54 48 48 46 46 44 50 51 52 52 48
46 41 45 47 48 48 47 52 49 48 47 44 39 39 40 43 40 37 36 39 40 41 38 39 39 41 45 46 48 50 50 53 53 53 52 52 48 46 44 46 52 52 50 48 50
52 54 46 37 50 49 51 49 43 47 45 42 38 39 41 37 32 30 27 31 39 39 41 43 45 49 49 48 51 52 54 52 51 50 51 51 43 44 46 49 49 49 49 48 48
Wind_Direction
235 232 232 235 235 236 235 235 234 235 235 236 237 238 238 237 237 237 238 238 237 237 237 234 230 227 223 224 227 226 226 233 235 241 234 230 226 230 232 232 230 227 227 222 232
233 231 231 231 233 235 235 233 230 235 236 236 236 240 238 238 237 237 238 240 239 239 236 235 232 230 226 223 225 226 225 229 232 240 240 236 234 232 237 235 239 240 245 249 251
233 233 233 233 234 232 234 234 234 231 236 238 237 236 239 239 239 237 239 240 240 240 238 237 235 230 228 222 224 226 226 230 233 238 242 235 238 234 241 242 243 250 253 255 257
232 234 235 236 232 231 233 233 233 230 232 234 237 235 237 241 240 238 238 240 242 241 240 239 237 232 229 225 225 227 228 231 235 236 238 233 239 241 244 249 251 253 256 259 262
227 230 235 235 237 230 228 231 230 228 227 230 233 237 238 237 243 240 239 240 241 242 241 239 238 236 230 227 225 227 228 233 233 237 238 236 236 238 245 250 254 253 259 261 262
230 227 229 232 234 236 230 228 228 226 225 226 228 231 237 242 239 242 239 240 241 242 241 238 238 238 237 229 226 227 229 236 234 236 236 235 237 241 245 249 255 256 258 260 262
235 229 228 231 232 235 235 224 226 224 226 229 231 235 229 231 236 239 241 240 240 240 239 238 238 238 237 231 227 226 230 236 234 236 236 238 240 243 245 250 258 258 259 263 266
237 235 234 236 236 234 232 226 224 225 226 225 229 231 230 232 233 237 238 239 238 238 237 235 235 235 235 233 229 229 232 236 236 239 240 242 243 249 251 256 258 264 266 268 270
230 227 235 237 240 240 236 232 231 229 223 227 227 230 225 231 233 237 231 237 235 235 235 233 232 232 231 228 229 231 235 237 237 241 243 246 246 256 256 260 264 268 272 275 278
223 229 228 229 240 240 233 237 239 233 229 227 229 229 231 227 230 231 227 233 234 233 234 232 231 230 228 227 229 232 235 237 241 240 246 248 251 258 260 264 268 271 273 277 281
228 232 230 227 236 240 240 242 243 242 237 232 230 230 228 225 230 233 228 229 234 232 233 234 232 230 230 228 231 233 236 241 242 243 247 251 252 256 264 266 267 271 276 278 278
227 229 234 223 227 240 248 238 242 246 248 240 234 228 226 227 229 233 228 232 231 236 235 234 234 231 232 231 232 235 238 242 245 249 249 254 257 259 262 264 266 270 275 276 278
217 224 228 224 230 238 243 239 239 238 245 242 235 229 224 225 227 233 232 226 232 229 234 232 232 232 233 235 235 237 239 242 246 249 253 254 258 260 262 264 267 269 277 272 276
218 220 227 227 225 230 234 230 232 238 240 244 239 238 230 229 230 225 234 228 230 231 229 234 234 232 235 237 238 240 242 245 248 252 254 257 261 263 263 263 263 267 276 281 281
213 220 224 218 221 220 225 228 232 237 240 241 243 238 232 230 227 228 227 231 230 232 231 231 231 234 235 235 237 241 244 246 248 250 255 257 262 262 261 264 264 268 279 281 280
208 209 206 207 210 211 211 220 229 236 235 244 242 243 237 234 232 231 230 225 230 230 230 230 231 232 234 238 242 244 244 246 248 251 253 252 256 261 264 262 265 273 280 280 280
199 207 209 197 206 208 214 223 223 230 236 243 246 241 240 236 236 231 234 238 235 233 234 233 233 237 237 238 240 242 243 243 244 246 252 253 254 263 267 272 277 277 279 279 279
202 202 211 213 202 209 208 216 221 227 232 239 243 241 240 240 241 235 235 239 238 234 231 232 232 234 238 239 240 235 236 240 243 248 254 260 266 269 268 271 276 279 282 279 278
198 204 201 210 208 207 210 218 226 228 229 233 241 241 241 242 241 240 238 235 237 239 237 237 238 236 236 237 240 237 237 243 250 256 261 265 269 270 271 272 275 276 277 278 276
197 198 201 205 205 208 212 216 217 217 225 231 236 240 242 242 245 242 239 238 235 234 240 240 242 240 238 238 239 242 243 248 256 260 265 269 270 271 272 273 275 277 278 275 273
190 195 200 202 209 214 213 216 214 218 223 230 233 238 238 237 239 239 240 240 239 238 240 241 242 244 244 244 243 246 251 253 257 259 262 265 268 272 272 274 276 277 279 277 275
196 197 203 208 204 212 215 216 221 221 223 227 229 232 237 237 237 238 240 239 240 241 244 246 249 248 248 246 245 247 251 254 257 261 265 267 266 270 271 272 278 279 281 278 276
197 197 201 203 202 202 206 215 210 219 225 230 230 231 234 240 238 235 233 235 235 236 236 237 240 242 246 249 250 253 256 258 259 260 261 263 267 271 269 271 271 273 277 280 280
188 187 194 202 208 210 209 213 216 220 222 226 231 228 236 240 238 233 230 223 224 231 232 236 236 238 244 248 248 248 251 253 256 258 260 263 263 262 268 272 273 274 276 276 278
193 189 195 200 202 210 211 215 215 217 221 226 230 234 242 243 236 231 231 225 223 224 220 221 234 234 236 243 247 249 249 251 254 257 257 261 262 266 269 273 275 275 276 278 278
189 198 204 207 205 206 205 210 212 213 218 225 231 236 236 238 240 239 239 234 229 228 228 224 233 238 240 242 250 252 253 252 251 256 263 267 268 269 273 269 268 271 277 281 281
218 210 202 206 211 218 219 218 224 225 223 220 224 231 231 231 233 234 221 220 231 234 236 238 240 243 245 245 247 253 258 261 264 262 262 265 272 269 265 265 269 272 275 273 274
Height
5704 5711 5716 5723 5730 5735 5741 5747 5754 5759 5764 5770 5776 5781 5787 5792 5796 5800 5804 5810 5814 5818 5822 5825 5828 5832 5835 5839 5841 5844 5847 5850 5853 5853 5854 5856 5858 5860 5862 5864 5866 5866 5868 5868 5868
5693 5700 5706 5712 5719 5726 5732 5738 5743 5750 5756 5761 5767 5773 5778 5784 5788 5793 5798 5802 5806 5810 5815 5819 5822 5827 5829 5832 5836 5839 5842 5844 5847 5850 5851 5854 5855 5858 5859 5861 5863 5865 5867 5867 5866
5680 5688 5696 5703 5709 5715 5722 5728 5734 5740 5747 5752 5758 5764 5770 5775 5780 5784 5789 5794 5799 5803 5807 5813 5816 5819 5823 5826 5830 5832 5837 5837 5842 5847 5847 5850 5851 5855 5855 5858 5859 5862 5863 5863 5863
5668 5676 5684 5690 5698 5704 5712 5718 5724 5730 5737 5743 5749 5754 5761 5766 5771 5776 5781 5786 5791 5795 5800 5805 5809 5813 5816 5821 5823 5828 5829 5834 5839 5842 5843 5846 5847 5851 5852 5854 5857 5858 5860 5859 5859
5654 5663 5672 5680 5686 5694 5701 5708 5715 5722 5727 5734 5740 5745 5751 5758 5762 5768 5773 5778 5783 5787 5792 5797 5801 5805 5810 5814 5819 5821 5825 5829 5835 5835 5838 5842 5842 5845 5848 5849 5851 5856 5855 5855 5855
5642 5651 5660 5669 5676 5683 5690 5698 5705 5711 5718 5724 5731 5737 5742 5749 5755 5759 5765 5769 5774 5779 5783 5788 5793 5797 5804 5807 5813 5815 5821 5822 5828 5829 5833 5836 5838 5840 5844 5844 5846 5850 5851 5850 5850
5631 5638 5648 5657 5666 5672 5679 5687 5695 5701 5708 5715 5721 5727 5735 5740 5748 5752 5757 5761 5766 5770 5775 5780 5786 5792 5795 5801 5805 5811 5814 5816 5821 5823 5826 5830 5833 5836 5836 5840 5842 5843 5845 5846 5846
5619 5627 5638 5645 5654 5662 5669 5677 5684 5691 5697 5704 5712 5718 5724 5730 5737 5743 5748 5754 5758 5762 5768 5772 5777 5782 5788 5796 5800 5804 5807 5810 5814 5817 5821 5823 5829 5829 5831 5833 5836 5837 5839 5839 5840
5610 5617 5626 5635 5643 5650 5658 5665 5672 5680 5686 5693 5702 5708 5715 5722 5729 5735 5739 5746 5750 5754 5759 5763 5768 5774 5780 5787 5792 5795 5801 5803 5808 5811 5813 5816 5822 5820 5827 5827 5829 5831 5832 5832 5833
5599 5608 5616 5625 5633 5640 5645 5652 5659 5669 5676 5682 5690 5698 5706 5715 5720 5727 5732 5738 5743 5747 5752 5756 5760 5766 5771 5777 5784 5789 5792 5795 5799 5804 5805 5809 5816 5814 5819 5821 5823 5824 5824 5825 5825
5589 5599 5607 5615 5624 5629 5635 5641 5650 5657 5668 5676 5684 5691 5698 5705 5711 5718 5724 5730 5735 5740 5744 5749 5753 5759 5764 5769 5772 5779 5785 5787 5790 5796 5799 5801 5806 5810 5810 5814 5816 5815 5816 5817 5816
5579 5589 5596 5606 5613 5620 5627 5635 5644 5651 5655 5663 5673 5679 5689 5695 5701 5708 5715 5721 5726 5733 5736 5742 5746 5752 5756 5760 5763 5770 5775 5780 5783 5786 5792 5793 5797 5804 5805 5804 5805 5808 5809 5809 5807
5570 5580 5587 5597 5603 5609 5623 5628 5633 5637 5641 5651 5658 5666 5676 5684 5692 5701 5706 5710 5717 5723 5728 5733 5738 5742 5747 5752 5757 5760 5766 5771 5775 5778 5783 5785 5789 5792 5797 5799 5800 5800 5800 5800 5800
5558 5568 5577 5586 5593 5604 5614 5617 5624 5629 5631 5637 5648 5656 5670 5676 5681 5691 5697 5702 5708 5714 5718 5724 5729 5734 5739 5744 5748 5752 5757 5762 5766 5770 5774 5777 5778 5785 5787 5790 5790 5790 5789 5789 5790
5547 5558 5568 5578 5586 5595 5606 5610 5615 5622 5622 5632 5636 5645 5657 5665 5675 5680 5687 5694 5700 5705 5711 5717 5721 5727 5732 5736 5739 5743 5749 5753 5757 5759 5764 5768 5771 5776 5778 5778 5778 5778 5780 5780 5780
5539 5549 5561 5567 5578 5587 5595 5602 5610 5613 5612 5617 5630 5637 5649 5657 5662 5670 5677 5684 5690 5695 5701 5705 5711 5717 5721 5725 5731 5735 5740 5743 5746 5750 5754 5758 5760 5765 5765 5768 5767 5769 5770 5770 5769
5531 5541 5552 5560 5571 5578 5588 5595 5599 5597 5607 5611 5618 5629 5638 5646 5652 5662 5668 5676 5682 5689 5692 5697 5703 5708 5714 5718 5722 5726 5730 5733 5737 5740 5744 5747 5752 5761 5751 5756 5755 5758 5760 5757 5755
5523 5535 5544 5552 5563 5571 5580 5583 5584 5592 5599 5604 5609 5616 5626 5635 5641 5648 5654 5663 5670 5675 5681 5686 5692 5698 5705 5710 5713 5716 5720 5721 5722 5727 5733 5738 5741 5747 5748 5748 5742 5744 5742 5742 5742
5516 5525 5533 5541 5553 5563 5569 5569 5577 5585 5593 5599 5603 5609 5617 5624 5632 5638 5645 5654 5660 5664 5671 5676 5680 5688 5693 5696 5701 5704 5707 5711 5715 5720 5722 5728 5732 5733 5735 5733 5731 5731 5732 5730 5730
5504 5515 5522 5534 5545 5554 5557 5562 5573 5579 5584 5591 5598 5605 5613 5619 5624 5628 5634 5643 5649 5654 5655 5663 5670 5675 5679 5683 5688 5691 5699 5702 5705 5710 5712 5714 5716 5717 5719 5721 5718 5718 5718 5720 5718
5496 5503 5514 5526 5538 5542 5545 5556 5566 5573 5579 5585 5594 5600 5608 5613 5617 5621 5627 5633 5638 5643 5646 5655 5661 5666 5670 5676 5681 5682 5687 5693 5697 5697 5698 5700 5706 5707 5706 5704 5705 5704 5708 5708 5707
5483 5497 5506 5518 5525 5529 5538 5550 5558 5564 5572 5580 5587 5593 5599 5605 5610 5615 5619 5623 5628 5633 5639 5646 5648 5652 5659 5663 5666 5669 5673 5677 5681 5686 5692 5691 5695 5694 5694 5694 5694 5693 5692 5696 5696
5483 5494 5502 5511 5513 5523 5532 5541 5550 5559 5568 5574 5582 5586 5593 5598 5604 5608 5611 5615 5618 5623 5629 5635 5637 5641 5644 5649 5654 5659 5665 5669 5671 5673 5678 5678 5685 5682 5686 5685 5683 5682 5682 5683 5682
5476 5484 5492 5499 5509 5519 5528 5534 5543 5552 5559 5568 5575 5581 5587 5590 5597 5600 5604 5609 5611 5616 5621 5624 5629 5632 5636 5639 5644 5650 5654 5658 5659 5660 5663 5668 5670 5674 5673 5672 5671 5673 5673 5671 5673
5467 5476 5485 5492 5503 5513 5523 5532 5537 5545 5553 5559 5567 5575 5580 5585 5590 5593 5596 5602 5604 5609 5614 5618 5619 5623 5626 5629 5635 5641 5644 5646 5647 5650 5648 5658 5658 5664 5665 5668 5660 5659 5656 5655 5660
5459 5473 5482 5494 5503 5509 5516 5522 5532 5539 5547 5555 5564 5570 5573 5576 5582 5588 5591 5596 5598 5603 5606 5610 5612 5614 5617 5622 5623 5627 5632 5632 5636 5637 5641 5644 5649 5655 5656 5652 5645 5646 5646 5647 5645
5455 5465 5477 5485 5494 5500 5509 5521 5529 5534 5541 5551 5557 5560 5565 5569 5574 5580 5583 5587 5590 5595 5599 5601 5603 5605 5608 5611 5613 5619 5619 5622 5626 5628 5630 5633 5645 5640 5638 5635 5636 5636 5633 5633 5632